,,,PA_Meas_PMT16A,,PR_Meas_QMR101_102,,RH_Meas_QMH101,,SR_Meas_QMS101,,TA_Meas_QMH101,,GenWind,,GenWind,
date,time,status,PA,status,PR,status,RH,status,SR,status,TA,status,DirAvg,status,SpdAvg,
2012-12-13, 00:00:04,VALID,1010.82,VALID,0,VALID,104,VALID,0.112112,VALID,23.4992,VALID,45,VALID,0.358594,
2012-12-13, 00:01:04,VALID,1010.88,VALID,0,VALID,104,VALID,0,VALID,23.4992,VALID,45,VALID,0.180859,
2012-12-13, 00:02:04,VALID,1010.85,VALID,0,VALID,104,VALID,0,VALID,23.4779,VALID,45,VALID,0,
2012-12-13, 00:03:04,VALID,1010.86,VALID,0,VALID,104,VALID,0,VALID,23.4992,VALID,45,VALID,0,
2012-12-13, 00:04:04,VALID,1010.88,VALID,0,VALID,104,VALID,0.112112,VALID,23.4602,VALID,45,VALID,0.0972656,
2012-12-13, 00:05:04,VALID,1010.88,VALID,0,VALID,104,VALID,0.112112,VALID,23.4992,VALID,45,VALID,0.414453,
2012-12-13, 00:06:04,VALID,1010.89,VALID,0,VALID,104,VALID,0,VALID,23.4779,VALID,45,VALID,0.439844,
2012-12-13, 00:07:04,VALID,1010.89,VALID,0,VALID,104,VALID,0.112112,VALID,23.4992,VALID,45,VALID,0.514453,
2012-12-13, 00:08:04,VALID,1010.9,VALID,0,VALID,104,VALID,0.112112,VALID,23.4779,VALID,45,VALID,0.758594,
2012-12-13, 00:09:04,VALID,1010.92,VALID,0,VALID,104,VALID,0.112112,VALID,23.5169,VALID,46,VALID,0.782031,
2012-12-13, 00:10:04,VALID,1010.91,VALID,0,VALID,104,VALID,0.112112,VALID,23.5169,VALID,47,VALID,0.709766,
2012-12-13, 00:11:04,VALID,1010.92,VALID,0,VALID,104,VALID,0.112112,VALID,23.5363,VALID,46,VALID,0.585547,
2012-12-13, 00:12:04,VALID,1010.96,VALID,0,VALID,104,VALID,0,VALID,23.5363,VALID,47,VALID,0.684766,
2012-12-13, 00:13:04,VALID,1010.9,VALID,0,VALID,104,VALID,0.112112,VALID,23.5558,VALID,47,VALID,0.676562,
2012-12-13, 00:14:04,VALID,1010.88,VALID,0,VALID,104,VALID,0,VALID,23.6143,VALID,48,VALID,0.708594,
2012-12-13, 00:15:04,VALID,1010.9,VALID,0,VALID,104,VALID,0.112112,VALID,23.6356,VALID,48,VALID,0.571094,
2012-12-13, 00:16:04,VALID,1010.91,VALID,0,VALID,104,VALID,0.112112,VALID,23.6161,VALID,65,VALID,0.785547,
2012-12-13, 00:17:04,VALID,1010.88,VALID,0,VALID,104,VALID,0,VALID,23.5966,VALID,65,VALID,0.767187,
2012-12-13, 00:18:04,VALID,1010.86,VALID,0,VALID,104,VALID,0,VALID,23.5753,VALID,65,VALID,0.764063,
2012-12-13, 00:19:04,VALID,1010.87,VALID,0,VALID,104,VALID,0,VALID,23.5363,VALID,64,VALID,0.560547,
2012-12-13, 00:20:04,VALID,1010.89,VALID,0,VALID,104,VALID,0,VALID,23.5363,VALID,64,VALID,0.176953,
2012-12-13, 00:21:04,VALID,1010.87,VALID,0,VALID,104,VALID,0,VALID,23.5576,VALID,64,VALID,0,
2012-12-13, 00:22:04,VALID,1010.87,VALID,0,VALID,104,VALID,0,VALID,23.5381,VALID,64,VALID,0.175781,
2012-12-13, 00:23:04,VALID,1010.86,VALID,0,VALID,104,VALID,0.112112,VALID,23.5169,VALID,64,VALID,0.277734,
2012-12-13, 00:24:04,VALID,1010.8,VALID,0,VALID,104,VALID,0.112112,VALID,23.4974,VALID,64,VALID,0.340234,
2012-12-13, 00:25:04,VALID,1010.77,VALID,0,VALID,104,VALID,0.112112,VALID,23.4779,VALID,64,VALID,0.350781,
2012-12-13, 00:26:04,VALID,1010.79,VALID,0,VALID,104,VALID,0.112112,VALID,23.5169,VALID,64,VALID,0.162891,
2012-12-13, 00:27:04,VALID,1010.79,VALID,0,VALID,104,VALID,0.112112,VALID,23.5381,VALID,65,VALID,0.00195313,
2012-12-13, 00:28:04,VALID,1010.8,VALID,0,VALID,104,VALID,0,VALID,23.5381,VALID,63,VALID,0.209375,
2012-12-13, 00:29:04,VALID,1010.79,VALID,0,VALID,104,VALID,0.112112,VALID,23.5381,VALID,64,VALID,0.401953,
2012-12-13, 00:30:04,VALID,1010.77,VALID,0,VALID,104,VALID,0,VALID,23.5381,VALID,65,VALID,0.544531,
2012-12-13, 00:31:04,VALID,1010.83,VALID,0,VALID,104,VALID,0,VALID,23.5381,VALID,64,VALID,0.7,
2012-12-13, 00:32:04,VALID,1010.83,VALID,0,VALID,104,VALID,0,VALID,23.5381,VALID,64,VALID,0.447656,
2012-12-13, 00:33:04,VALID,1010.85,VALID,0,VALID,104,VALID,0.112112,VALID,23.5186,VALID,63,VALID,0.751562,
2012-12-13, 00:34:04,VALID,1010.8,VALID,0,VALID,104,VALID,0.112112,VALID,23.5363,VALID,74,VALID,0.641016,
2012-12-13, 00:35:04,VALID,1010.83,VALID,0,VALID,104,VALID,0.112112,VALID,23.4974,VALID,79,VALID,1.04453,
2012-12-13, 00:36:04,VALID,1010.79,VALID,0,VALID,104,VALID,0.112112,VALID,23.4584,VALID,90,VALID,0.948828,
2012-12-13, 00:37:04,VALID,1010.76,VALID,0,VALID,104,VALID,0.112112,VALID,23.4584,VALID,89,VALID,0.749609,
2012-12-13, 00:38:04,VALID,1010.77,VALID,0,VALID,104,VALID,0.112112,VALID,23.4584,VALID,74,VALID,0.979297,
2012-12-13, 00:39:04,VALID,1010.73,VALID,0,VALID,104,VALID,0.112112,VALID,23.3823,VALID,74,VALID,0.921484,
2012-12-13, 00:40:04,VALID,1010.71,VALID,0,VALID,104,VALID,0,VALID,23.361,VALID,74,VALID,0.751562,
2012-12-13, 00:41:04,VALID,1010.7,VALID,0,VALID,104,VALID,0.112112,VALID,23.3805,VALID,74,VALID,0.447266,
2012-12-13, 00:42:04,VALID,1010.68,VALID,0,VALID,104,VALID,0.112112,VALID,23.3805,VALID,73,VALID,0.394531,
2012-12-13, 00:43:04,VALID,1010.67,VALID,0,VALID,104,VALID,0.112112,VALID,23.4194,VALID,73,VALID,0.447656,
2012-12-13, 00:44:04,VALID,1010.63,VALID,0,VALID,104,VALID,0.112112,VALID,23.4389,VALID,54,VALID,0.628906,
2012-12-13, 00:45:04,VALID,1010.64,VALID,0,VALID,104,VALID,0.112112,VALID,23.4407,VALID,53,VALID,0.727734,
2012-12-13, 00:46:04,VALID,1010.64,VALID,0,VALID,104,VALID,0,VALID,23.4,VALID,38,VALID,0.597266,
2012-12-13, 00:47:04,VALID,1010.64,VALID,0,VALID,104,VALID,0,VALID,23.4035,VALID,38,VALID,0.213281,
2012-12-13, 00:48:04,VALID,1010.63,VALID,0,VALID,104,VALID,0,VALID,23.3823,VALID,38,VALID,0.330859,
2012-12-13, 00:49:04,VALID,1010.63,VALID,0,VALID,104,VALID,0,VALID,23.3823,VALID,38,VALID,0.316016,
2012-12-13, 00:50:04,VALID,1010.58,VALID,0,VALID,104,VALID,0,VALID,23.3823,VALID,39,VALID,0.0234375,
2012-12-13, 00:51:04,VALID,1010.56,VALID,0,VALID,104,VALID,0,VALID,23.384,VALID,38,VALID,0,
2012-12-13, 00:52:04,VALID,1010.52,VALID,0,VALID,104,VALID,0,VALID,23.3433,VALID,38,VALID,0.189844,
2012-12-13, 00:53:04,VALID,1010.52,VALID,0,VALID,104,VALID,0,VALID,23.3628,VALID,38,VALID,0.258594,
2012-12-13, 00:54:04,VALID,1010.51,VALID,0,VALID,104,VALID,0,VALID,23.3628,VALID,38,VALID,0.43125,
2012-12-13, 00:55:04,VALID,1010.44,VALID,0,VALID,104,VALID,0,VALID,23.384,VALID,38,VALID,0.290625,
2012-12-13, 00:56:04,VALID,1010.46,VALID,0,VALID,104,VALID,0,VALID,23.3628,VALID,38,VALID,0.225781,
2012-12-13, 00:57:04,VALID,1010.4,VALID,0,VALID,104,VALID,0,VALID,23.3823,VALID,38,VALID,0.302344,
2012-12-13, 00:58:04,VALID,1010.36,VALID,0,VALID,104,VALID,0,VALID,23.3823,VALID,38,VALID,0,
2012-12-13, 00:59:04,VALID,1010.35,VALID,0,VALID,104,VALID,0,VALID,23.3645,VALID,38,VALID,0,
2012-12-13, 01:00:04,VALID,1010.33,VALID,0,VALID,104,VALID,0,VALID,23.3451,VALID,38,VALID,0,
2012-12-13, 01:01:04,VALID,1010.33,VALID,0,VALID,104,VALID,0,VALID,23.3238,VALID,38,VALID,0,
2012-12-13, 01:02:04,VALID,1010.28,VALID,0,VALID,104,VALID,0.112112,VALID,23.322,VALID,38,VALID,0,
2012-12-13, 01:03:04,VALID,1010.26,VALID,0,VALID,104,VALID,0.112112,VALID,23.322,VALID,38,VALID,0,
2012-12-13, 01:04:04,VALID,1010.28,VALID,0,VALID,104,VALID,0.112112,VALID,23.3026,VALID,38,VALID,0.421094,
2012-12-13, 01:05:04,VALID,1010.25,VALID,0,VALID,104,VALID,0.112112,VALID,23.2636,VALID,46,VALID,0.748047,
2012-12-13, 01:06:04,VALID,1010.23,VALID,0,VALID,104,VALID,0.112112,VALID,23.2441,VALID,42,VALID,0.402734,
2012-12-13, 01:07:04,VALID,1010.18,VALID,0,VALID,104,VALID,0.112112,VALID,23.2246,VALID,56,VALID,0.699219,
2012-12-13, 01:08:04,VALID,1010.15,VALID,0,VALID,104,VALID,0.112112,VALID,23.2441,VALID,56,VALID,0.465625,
2012-12-13, 01:09:04,VALID,1010.14,VALID,0,VALID,104,VALID,0.112112,VALID,23.2246,VALID,56,VALID,0.212891,
2012-12-13, 01:10:04,VALID,1010.09,VALID,0,VALID,104,VALID,0.112112,VALID,23.2051,VALID,57,VALID,0,
2012-12-13, 01:11:04,VALID,1010.02,VALID,0,VALID,104,VALID,0.112112,VALID,23.1857,VALID,57,VALID,0,
2012-12-13, 01:12:04,VALID,1009.98,VALID,0,VALID,104,VALID,0.112112,VALID,23.2069,VALID,57,VALID,0,
2012-12-13, 01:13:04,VALID,1009.96,VALID,0,VALID,104,VALID,0,VALID,23.2264,VALID,56,VALID,0,
2012-12-13, 01:14:04,VALID,1009.94,VALID,0,VALID,104,VALID,0.112112,VALID,23.1857,VALID,56,VALID,0.0636719,
2012-12-13, 01:15:04,VALID,1009.91,VALID,0,VALID,104,VALID,0.112112,VALID,23.2051,VALID,56,VALID,0.347656,
2012-12-13, 01:16:04,VALID,1009.93,VALID,0,VALID,104,VALID,0.112112,VALID,23.2051,VALID,56,VALID,0.400391,
2012-12-13, 01:17:04,VALID,1009.9,VALID,0,VALID,104,VALID,0.112112,VALID,23.2051,VALID,56,VALID,0.441406,
2012-12-13, 01:18:04,VALID,1009.91,VALID,0,VALID,104,VALID,0,VALID,23.1857,VALID,56,VALID,0.323828,
2012-12-13, 01:19:04,VALID,1009.94,VALID,0,VALID,104,VALID,0.112112,VALID,23.1857,VALID,56,VALID,0.338281,
2012-12-13, 01:20:04,VALID,1009.95,VALID,0,VALID,104,VALID,0,VALID,23.1662,VALID,56,VALID,0.251563,
2012-12-13, 01:21:04,VALID,1009.94,VALID,0,VALID,104,VALID,0.112112,VALID,23.1467,VALID,56,VALID,0.283203,
2012-12-13, 01:22:04,VALID,1009.94,VALID,0,VALID,104,VALID,0.112112,VALID,23.1467,VALID,56,VALID,0.205859,
2012-12-13, 01:23:04,VALID,1009.93,VALID,0,VALID,104,VALID,0.112112,VALID,23.1679,VALID,56,VALID,0.232031,
2012-12-13, 01:24:04,VALID,1009.9,VALID,0,VALID,104,VALID,0.112112,VALID,23.1272,VALID,56,VALID,0.311328,
2012-12-13, 01:25:04,VALID,1009.91,VALID,0,VALID,104,VALID,0.112112,VALID,23.1272,VALID,56,VALID,0.329297,
2012-12-13, 01:26:04,VALID,1009.91,VALID,0,VALID,104,VALID,0.112112,VALID,23.1272,VALID,56,VALID,0.282813,
2012-12-13, 01:27:04,VALID,1009.92,VALID,0,VALID,104,VALID,0.112112,VALID,23.1485,VALID,56,VALID,0.00507812,
2012-12-13, 01:28:04,VALID,1009.91,VALID,0,VALID,104,VALID,0.112112,VALID,23.1272,VALID,56,VALID,0,
2012-12-13, 01:29:04,VALID,1009.9,VALID,0,VALID,104,VALID,0.112112,VALID,23.1485,VALID,56,VALID,0.157422,
2012-12-13, 01:30:04,VALID,1009.88,VALID,0,VALID,104,VALID,0,VALID,23.1485,VALID,56,VALID,0.417188,
2012-12-13, 01:31:04,VALID,1009.86,VALID,0,VALID,104,VALID,0.112112,VALID,23.1272,VALID,56,VALID,0.355859,
2012-12-13, 01:32:04,VALID,1009.83,VALID,0,VALID,104,VALID,0,VALID,23.1095,VALID,56,VALID,0.371875,
2012-12-13, 01:33:04,VALID,1009.82,VALID,0,VALID,104,VALID,0,VALID,23.1502,VALID,56,VALID,0.355859,
2012-12-13, 01:34:04,VALID,1009.81,VALID,0,VALID,104,VALID,0,VALID,23.09,VALID,56,VALID,0.0570313,
2012-12-13, 01:35:04,VALID,1009.77,VALID,0,VALID,104,VALID,0,VALID,23.129,VALID,56,VALID,0.0105469,
2012-12-13, 01:36:04,VALID,1009.81,VALID,0,VALID,104,VALID,0,VALID,23.129,VALID,56,VALID,0.183203,
2012-12-13, 01:37:04,VALID,1009.77,VALID,0,VALID,104,VALID,0,VALID,23.1095,VALID,56,VALID,0.257031,
2012-12-13, 01:38:04,VALID,1009.76,VALID,0,VALID,104,VALID,0,VALID,23.129,VALID,56,VALID,0.165625,
2012-12-13, 01:39:04,VALID,1009.71,VALID,0,VALID,104,VALID,0,VALID,23.1095,VALID,56,VALID,0.00351562,
2012-12-13, 01:40:04,VALID,1009.68,VALID,0,VALID,104,VALID,0,VALID,23.129,VALID,56,VALID,0,
2012-12-13, 01:41:04,VALID,1009.68,VALID,0,VALID,104,VALID,0,VALID,23.1095,VALID,57,VALID,0,
2012-12-13, 01:42:04,VALID,1009.66,VALID,0,VALID,104,VALID,0,VALID,23.1095,VALID,54,VALID,0.372266,
2012-12-13, 01:43:04,VALID,1009.64,VALID,0,VALID,104,VALID,0,VALID,23.1307,VALID,55,VALID,0.121094,
2012-12-13, 01:44:04,VALID,1009.62,VALID,0,VALID,104,VALID,0,VALID,23.129,VALID,55,VALID,0.00273437,
2012-12-13, 01:45:04,VALID,1009.57,VALID,0,VALID,104,VALID,0,VALID,23.129,VALID,55,VALID,0,
2012-12-13, 01:46:04,VALID,1009.57,VALID,0,VALID,104,VALID,0,VALID,23.129,VALID,55,VALID,0,
2012-12-13, 01:47:04,VALID,1009.54,VALID,0,VALID,104,VALID,0,VALID,23.129,VALID,55,VALID,0.0726563,
2012-12-13, 01:48:04,VALID,1009.52,VALID,0,VALID,104,VALID,0,VALID,23.1485,VALID,55,VALID,0.267969,
2012-12-13, 01:49:04,VALID,1009.52,VALID,0,VALID,104,VALID,0,VALID,23.1485,VALID,54,VALID,0.301953,
2012-12-13, 01:50:04,VALID,1009.52,VALID,0,VALID,104,VALID,0,VALID,23.129,VALID,56,VALID,0.3625,
2012-12-13, 01:51:04,VALID,1009.53,VALID,0,VALID,104,VALID,0,VALID,23.129,VALID,55,VALID,0.294531,
2012-12-13, 01:52:04,VALID,1009.51,VALID,0,VALID,104,VALID,0,VALID,23.1485,VALID,55,VALID,0,
2012-12-13, 01:53:04,VALID,1009.5,VALID,0,VALID,104,VALID,0,VALID,23.1485,VALID,55,VALID,0,
2012-12-13, 01:54:04,VALID,1009.46,VALID,0,VALID,104,VALID,0,VALID,23.1874,VALID,55,VALID,0,
2012-12-13, 01:55:04,VALID,1009.48,VALID,0,VALID,104,VALID,0,VALID,23.1679,VALID,55,VALID,0,
2012-12-13, 01:56:04,VALID,1009.45,VALID,0,VALID,104,VALID,0,VALID,23.1679,VALID,55,VALID,0.189453,
2012-12-13, 01:57:04,VALID,1009.45,VALID,0,VALID,104,VALID,0,VALID,23.2069,VALID,55,VALID,0.420312,
2012-12-13, 01:58:04,VALID,1009.43,VALID,0,VALID,104,VALID,0,VALID,23.2069,VALID,55,VALID,0.346875,
2012-12-13, 01:59:04,VALID,1009.44,VALID,0,VALID,104,VALID,0,VALID,23.2069,VALID,55,VALID,0.192578,
2012-12-13, 02:00:04,VALID,1009.44,VALID,0,VALID,104,VALID,0,VALID,23.2476,VALID,56,VALID,0,
2012-12-13, 02:01:04,VALID,1009.42,VALID,0,VALID,104,VALID,0,VALID,23.2459,VALID,55,VALID,0.0015625,
2012-12-13, 02:02:04,VALID,1009.4,VALID,0,VALID,104,VALID,0,VALID,23.2459,VALID,55,VALID,0,
2012-12-13, 02:03:04,VALID,1009.41,VALID,0,VALID,104,VALID,0,VALID,23.2654,VALID,55,VALID,0,
2012-12-13, 02:04:04,VALID,1009.4,VALID,0,VALID,104,VALID,0,VALID,23.2654,VALID,55,VALID,0,
2012-12-13, 02:05:04,VALID,1009.37,VALID,0,VALID,104,VALID,0,VALID,23.2654,VALID,55,VALID,0.0492188,
2012-12-13, 02:06:04,VALID,1009.37,VALID,0,VALID,104,VALID,0,VALID,23.2459,VALID,55,VALID,0.171875,
2012-12-13, 02:07:04,VALID,1009.36,VALID,0,VALID,104,VALID,0,VALID,23.2264,VALID,55,VALID,0.145703,
2012-12-13, 02:08:04,VALID,1009.38,VALID,0,VALID,104,VALID,0,VALID,23.2459,VALID,55,VALID,0.117969,
2012-12-13, 02:09:04,VALID,1009.36,VALID,0,VALID,104,VALID,0,VALID,23.2264,VALID,55,VALID,0,
2012-12-13, 02:10:04,VALID,1009.33,VALID,0,VALID,104,VALID,0,VALID,23.3061,VALID,55,VALID,0.221875,
2012-12-13, 02:11:04,VALID,1009.34,VALID,0,VALID,104,VALID,0,VALID,23.3256,VALID,55,VALID,0.182031,
2012-12-13, 02:12:04,VALID,1009.33,VALID,0,VALID,104,VALID,0,VALID,23.2848,VALID,55,VALID,0.2375,
2012-12-13, 02:13:04,VALID,1009.32,VALID,0,VALID,104,VALID,0,VALID,23.2848,VALID,55,VALID,0.185156,
2012-12-13, 02:14:04,VALID,1009.34,VALID,0,VALID,104,VALID,0,VALID,23.3238,VALID,55,VALID,0.236328,
2012-12-13, 02:15:04,VALID,1009.32,VALID,0,VALID,104,VALID,0,VALID,23.3238,VALID,55,VALID,0.369922,
2012-12-13, 02:16:04,VALID,1009.35,VALID,0,VALID,104,VALID,0,VALID,23.3043,VALID,55,VALID,0.428516,
2012-12-13, 02:17:04,VALID,1009.32,VALID,0,VALID,104,VALID,0,VALID,23.2848,VALID,55,VALID,0.330859,
2012-12-13, 02:18:04,VALID,1009.29,VALID,0,VALID,104,VALID,0,VALID,23.3043,VALID,55,VALID,0.160938,
2012-12-13, 02:19:04,VALID,1009.31,VALID,0,VALID,104,VALID,0,VALID,23.2848,VALID,55,VALID,0,
2012-12-13, 02:20:04,VALID,1009.31,VALID,0,VALID,104,VALID,0,VALID,23.3238,VALID,55,VALID,0,
2012-12-13, 02:21:04,VALID,1009.33,VALID,0,VALID,104,VALID,0,VALID,23.3043,VALID,55,VALID,0.2625,
2012-12-13, 02:22:04,VALID,1009.31,VALID,0,VALID,104,VALID,0,VALID,23.3433,VALID,55,VALID,0.444922,
2012-12-13, 02:23:04,VALID,1009.3,VALID,0,VALID,104,VALID,0,VALID,23.3451,VALID,55,VALID,0.607813,
2012-12-13, 02:24:04,VALID,1009.3,VALID,0,VALID,104,VALID,0,VALID,23.3256,VALID,55,VALID,0.473828,
2012-12-13, 02:25:04,VALID,1009.31,VALID,0,VALID,104,VALID,0,VALID,23.3061,VALID,55,VALID,0.337891,
2012-12-13, 02:26:04,VALID,1009.34,VALID,0,VALID,104,VALID,0,VALID,23.3256,VALID,55,VALID,0.314063,
2012-12-13, 02:27:04,VALID,1009.34,VALID,0,VALID,104,VALID,0,VALID,23.2848,VALID,55,VALID,0.173828,
2012-12-13, 02:28:04,VALID,1009.37,VALID,0,VALID,104,VALID,0,VALID,23.3238,VALID,55,VALID,0.326172,
2012-12-13, 02:29:04,VALID,1009.34,VALID,0,VALID,104,VALID,0,VALID,23.3823,VALID,55,VALID,0.214453,
2012-12-13, 02:30:04,VALID,1009.35,VALID,0,VALID,104,VALID,0,VALID,23.4017,VALID,56,VALID,0.518359,
2012-12-13, 02:31:04,VALID,1009.35,VALID,0,VALID,104,VALID,0,VALID,23.4425,VALID,56,VALID,0.340625,
2012-12-13, 02:32:04,VALID,1009.32,VALID,0,VALID,104,VALID,0.112112,VALID,23.4407,VALID,116,VALID,0.665625,
2012-12-13, 02:33:04,VALID,1009.3,VALID,0,VALID,104,VALID,0,VALID,23.4407,VALID,139,VALID,0.853906,
2012-12-13, 02:34:04,VALID,1009.33,VALID,0,VALID,104,VALID,0.112112,VALID,23.4212,VALID,140,VALID,0.524219,
2012-12-13, 02:35:04,VALID,1009.33,VALID,0,VALID,104,VALID,0,VALID,23.4407,VALID,140,VALID,0.475781,
2012-12-13, 02:36:04,VALID,1009.33,VALID,0,VALID,104,VALID,0,VALID,23.4389,VALID,141,VALID,0.703516,
2012-12-13, 02:37:04,VALID,1009.31,VALID,0,VALID,104,VALID,0,VALID,23.4389,VALID,141,VALID,0.355859,
2012-12-13, 02:38:04,VALID,1009.3,VALID,0,VALID,104,VALID,0,VALID,23.4389,VALID,137,VALID,0.508203,
2012-12-13, 02:39:04,VALID,1009.3,VALID,0,VALID,104,VALID,0,VALID,23.3805,VALID,101,VALID,0.735547,
2012-12-13, 02:40:04,VALID,1009.27,VALID,0,VALID,104,VALID,0,VALID,23.3415,VALID,101,VALID,0.538281,
2012-12-13, 02:41:04,VALID,1009.27,VALID,0,VALID,104,VALID,0.112112,VALID,23.3805,VALID,95,VALID,0.611328,
2012-12-13, 02:42:04,VALID,1009.23,VALID,0,VALID,104,VALID,0.112112,VALID,23.3415,VALID,75,VALID,0.837109,
2012-12-13, 02:43:04,VALID,1009.21,VALID,0,VALID,104,VALID,0,VALID,23.3433,VALID,82,VALID,0.823047,
2012-12-13, 02:44:04,VALID,1009.21,VALID,0,VALID,104,VALID,0,VALID,23.322,VALID,86,VALID,0.708984,
2012-12-13, 02:45:04,VALID,1009.19,VALID,0,VALID,104,VALID,0,VALID,23.3026,VALID,94,VALID,0.504687,
2012-12-13, 02:46:04,VALID,1009.14,VALID,0,VALID,104,VALID,0,VALID,23.3026,VALID,122,VALID,0.800391,
2012-12-13, 02:47:04,VALID,1009.12,VALID,0,VALID,104,VALID,0,VALID,23.2831,VALID,117,VALID,0.912891,
2012-12-13, 02:48:04,VALID,1009.14,VALID,0,VALID,104,VALID,0.112112,VALID,23.3043,VALID,113,VALID,0.886328,
2012-12-13, 02:49:04,VALID,1009.1,VALID,0,VALID,104,VALID,0,VALID,23.2831,VALID,109,VALID,0.814062,
2012-12-13, 02:50:04,VALID,1009.08,VALID,0,VALID,104,VALID,0,VALID,23.2831,VALID,59,VALID,1.09805,
2012-12-13, 02:51:04,VALID,1009.08,VALID,0,VALID,104,VALID,0.112112,VALID,23.2831,VALID,56,VALID,1.01484,
2012-12-13, 02:52:04,VALID,1009.05,VALID,0,VALID,104,VALID,0.112112,VALID,23.2636,VALID,35,VALID,0.679688,
2012-12-13, 02:53:04,VALID,1009.03,VALID,0,VALID,104,VALID,0,VALID,23.2441,VALID,48,VALID,1.03242,
2012-12-13, 02:54:04,VALID,1009.01,VALID,0,VALID,104,VALID,0.112112,VALID,23.2246,VALID,54,VALID,0.525,
2012-12-13, 02:55:04,VALID,1008.99,VALID,0,VALID,104,VALID,0.112112,VALID,23.2264,VALID,37,VALID,1.05,
2012-12-13, 02:56:04,VALID,1009.02,VALID,0,VALID,104,VALID,0,VALID,23.2051,VALID,62,VALID,0.71875,
2012-12-13, 02:57:04,VALID,1008.99,VALID,0,VALID,104,VALID,0.112112,VALID,23.2069,VALID,67,VALID,0.813672,
2012-12-13, 02:58:04,VALID,1008.99,VALID,0,VALID,104,VALID,0.112112,VALID,23.2069,VALID,67,VALID,0.562891,
2012-12-13, 02:59:04,VALID,1008.98,VALID,0,VALID,104,VALID,0.112112,VALID,23.2069,VALID,67,VALID,0.625781,
2012-12-13, 03:00:04,VALID,1008.99,VALID,0,VALID,104,VALID,0.112112,VALID,23.1857,VALID,64,VALID,0.740625,
2012-12-13, 03:01:04,VALID,1009,VALID,0,VALID,104,VALID,0.112112,VALID,23.1467,VALID,63,VALID,0.940625,
2012-12-13, 03:02:04,VALID,1008.97,VALID,0,VALID,104,VALID,0,VALID,23.1467,VALID,75,VALID,0.876562,
2012-12-13, 03:03:04,VALID,1008.94,VALID,0,VALID,104,VALID,0,VALID,23.1272,VALID,50,VALID,0.754687,
2012-12-13, 03:04:04,VALID,1008.91,VALID,0,VALID,104,VALID,0,VALID,23.1077,VALID,63,VALID,0.945313,
2012-12-13, 03:05:04,VALID,1008.91,VALID,0,VALID,104,VALID,0,VALID,23.1095,VALID,45,VALID,0.778125,
2012-12-13, 03:06:04,VALID,1008.91,VALID,0,VALID,104,VALID,0.112112,VALID,23.1095,VALID,64,VALID,0.733203,
2012-12-13, 03:07:04,VALID,1008.89,VALID,0,VALID,104,VALID,0,VALID,23.0688,VALID,84,VALID,1.38477,
2012-12-13, 03:08:04,VALID,1008.87,VALID,0,VALID,104,VALID,0,VALID,23.0298,VALID,49,VALID,0.874609,
2012-12-13, 03:09:04,VALID,1008.83,VALID,0,VALID,104,VALID,0,VALID,23.0316,VALID,40,VALID,0.508984,
2012-12-13, 03:10:04,VALID,1008.83,VALID,0,VALID,104,VALID,0.112112,VALID,23.0103,VALID,41,VALID,0.420312,
2012-12-13, 03:11:04,VALID,1008.79,VALID,0,VALID,104,VALID,0.112112,VALID,23.0121,VALID,88,VALID,0.911719,
2012-12-13, 03:12:04,VALID,1008.75,VALID,0,VALID,104,VALID,0,VALID,22.9909,VALID,86,VALID,0.489062,
2012-12-13, 03:13:04,VALID,1008.76,VALID,0,VALID,104,VALID,0.112112,VALID,22.9909,VALID,84,VALID,0.28125,
2012-12-13, 03:14:04,VALID,1008.7,VALID,0,VALID,104,VALID,0,VALID,22.9926,VALID,82,VALID,0.169141,
2012-12-13, 03:15:04,VALID,1008.68,VALID,0,VALID,104,VALID,0,VALID,22.9926,VALID,82,VALID,0,
2012-12-13, 03:16:04,VALID,1008.61,VALID,0,VALID,104,VALID,0.112112,VALID,22.9714,VALID,82,VALID,0,
2012-12-13, 03:17:04,VALID,1008.59,VALID,0,VALID,104,VALID,0.112112,VALID,22.9731,VALID,82,VALID,0.00195313,
2012-12-13, 03:18:04,VALID,1008.57,VALID,0,VALID,104,VALID,0,VALID,22.9519,VALID,82,VALID,0,
2012-12-13, 03:19:04,VALID,1008.51,VALID,0,VALID,104,VALID,0.112112,VALID,22.9926,VALID,82,VALID,0,
2012-12-13, 03:20:04,VALID,1008.51,VALID,0,VALID,104,VALID,0.112112,VALID,22.9714,VALID,82,VALID,0.353125,
2012-12-13, 03:21:04,VALID,1008.51,VALID,0,VALID,104,VALID,0.112112,VALID,22.9714,VALID,82,VALID,0.448438,
2012-12-13, 03:22:04,VALID,1008.49,VALID,0,VALID,104,VALID,0.112112,VALID,22.9714,VALID,82,VALID,0.162109,
2012-12-13, 03:23:04,VALID,1008.52,VALID,0,VALID,104,VALID,0.112112,VALID,22.9714,VALID,82,VALID,0.00195313,
2012-12-13, 03:24:04,VALID,1008.47,VALID,0,VALID,104,VALID,0.112112,VALID,22.9714,VALID,82,VALID,0,
2012-12-13, 03:25:05,VALID,1008.45,VALID,0,VALID,104,VALID,0.112112,VALID,22.9731,VALID,82,VALID,0.355859,
2012-12-13, 03:26:05,VALID,1008.4,VALID,0,VALID,104,VALID,0,VALID,22.9714,VALID,82,VALID,0.314844,
2012-12-13, 03:27:05,VALID,1008.39,VALID,0,VALID,104,VALID,0.112112,VALID,22.9731,VALID,82,VALID,0.138281,
2012-12-13, 03:28:05,VALID,1008.35,VALID,0,VALID,104,VALID,0.112112,VALID,22.9519,VALID,82,VALID,0.21875,
2012-12-13, 03:29:05,VALID,1008.36,VALID,0,VALID,104,VALID,0.112112,VALID,22.9519,VALID,82,VALID,0.281641,
2012-12-13, 03:30:05,VALID,1008.35,VALID,0,VALID,104,VALID,0,VALID,22.9536,VALID,66,VALID,0.386328,
2012-12-13, 03:31:05,VALID,1008.34,VALID,0,VALID,104,VALID,0,VALID,22.9536,VALID,66,VALID,0.168359,
2012-12-13, 03:32:05,VALID,1008.35,VALID,0,VALID,104,VALID,0,VALID,22.9324,VALID,66,VALID,0.419141,
2012-12-13, 03:33:05,VALID,1008.33,VALID,0,VALID,104,VALID,0.112112,VALID,22.9342,VALID,66,VALID,0.178906,
2012-12-13, 03:34:05,VALID,1008.33,VALID,0,VALID,104,VALID,0.112112,VALID,22.9342,VALID,66,VALID,0,
2012-12-13, 03:35:05,VALID,1008.35,VALID,0,VALID,104,VALID,0,VALID,22.9342,VALID,66,VALID,0,
2012-12-13, 03:36:05,VALID,1008.36,VALID,0,VALID,104,VALID,0,VALID,22.9324,VALID,66,VALID,0.242969,
2012-12-13, 03:37:05,VALID,1008.37,VALID,0,VALID,104,VALID,0.112112,VALID,22.9731,VALID,66,VALID,0.423438,
2012-12-13, 03:38:05,VALID,1008.36,VALID,0,VALID,104,VALID,0,VALID,22.9731,VALID,66,VALID,0.38125,
2012-12-13, 03:39:05,VALID,1008.38,VALID,0,VALID,104,VALID,0,VALID,22.9519,VALID,66,VALID,0.0757812,
2012-12-13, 03:40:05,VALID,1008.38,VALID,0,VALID,104,VALID,0,VALID,22.9731,VALID,67,VALID,0.557031,
2012-12-13, 03:41:05,VALID,1008.38,VALID,0,VALID,104,VALID,0,VALID,22.9324,VALID,67,VALID,0.672656,
2012-12-13, 03:42:05,VALID,1008.39,VALID,0,VALID,104,VALID,0.112112,VALID,22.9536,VALID,81,VALID,0.444531,
2012-12-13, 03:43:05,VALID,1008.4,VALID,0,VALID,104,VALID,0,VALID,22.9519,VALID,81,VALID,0.526172,
2012-12-13, 03:44:05,VALID,1008.42,VALID,0,VALID,104,VALID,0,VALID,22.9731,VALID,81,VALID,0.60625,
2012-12-13, 03:45:05,VALID,1008.41,VALID,0,VALID,104,VALID,0,VALID,22.9324,VALID,81,VALID,0.471875,
2012-12-13, 03:46:05,VALID,1008.42,VALID,0,VALID,104,VALID,0,VALID,22.9536,VALID,81,VALID,0.536719,
2012-12-13, 03:47:05,VALID,1008.39,VALID,0,VALID,104,VALID,0,VALID,22.9536,VALID,81,VALID,0.702734,
2012-12-13, 03:48:05,VALID,1008.4,VALID,0,VALID,104,VALID,0,VALID,22.9342,VALID,81,VALID,0.449219,
2012-12-13, 03:49:05,VALID,1008.42,VALID,0,VALID,104,VALID,0,VALID,22.9749,VALID,81,VALID,0.711328,
2012-12-13, 03:50:05,VALID,1008.38,VALID,0,VALID,104,VALID,0,VALID,22.9554,VALID,81,VALID,0.691797,
2012-12-13, 03:51:05,VALID,1008.39,VALID,0,VALID,104,VALID,0,VALID,22.9359,VALID,78,VALID,0.566406,